This is the latest recevied weather packets stored in our database for station/object KC8UZG. If no packets are shown the sender has not sent any weather packets the latest 10 day(s).
| Time | Temp. | Humidity | Pressure | Rain* | Wind** | Luminosity | Snow |
|---|---|---|---|---|---|---|---|
| 1777986317 | 13.89° C | 99% | 1007 hPa | 0 mm | - | 57 W/m² | - |
| 1777985723 | 13.33° C | 99% | 1007 hPa | 0 mm | - | 59 W/m² | - |
| 1777985129 | 13.33° C | 99% | 1007 hPa | 0 mm | - | 59 W/m² | - |
| 1777984535 | 12.78° C | 99% | 1007.3 hPa | 0 mm | - | 37 W/m² | - |
| 1777983942 | 12.78° C | 99% | 1007.3 hPa | 0 mm | - | 29 W/m² | - |
| 1777983321 | 12.78° C | 99% | 1007.2 hPa | 0 mm | - | 27 W/m² | - |
| 1777982727 | 12.78° C | 99% | 1007.3 hPa | 0 mm | - | 24 W/m² | - |
| 1777982131 | 12.78° C | 99% | 1007.3 hPa | 0 mm | - | 21 W/m² | - |
| 1777981538 | 12.78° C | 99% | 1006.9 hPa | 0 mm | - | 20 W/m² | - |
| 1777980917 | 12.78° C | 99% | 1006.6 hPa | 0 mm | - | 21 W/m² | - |
| 1777980323 | 12.22° C | 99% | 1006.3 hPa | 0 mm | - | 11 W/m² | - |
| 1777979728 | 12.22° C | 99% | 1005.9 hPa | 0.25 mm | - | 0 W/m² | - |
| 1777979134 | 12.22° C | 99% | 1005.6 hPa | 0.25 mm | - | 0 W/m² | - |
| 1777978541 | 12.22° C | 99% | 1005.5 hPa | 0.25 mm | - | 0 W/m² | - |
| 1777977919 | 12.22° C | 99% | 1005 hPa | 0.76 mm | - | 0 W/m² | - |
| 1777977326 | 12.22° C | 99% | 1006.2 hPa | 1.52 mm | - | 0 W/m² | - |
| 1777976733 | 12.22° C | 99% | - | 2.54 mm | - | 0 W/m² | - |
| 1777976137 | 12.22° C | 99% | - | 3.3 mm | - | 0 W/m² | - |
| 1777975518 | 12.78° C | 99% | - | 4.32 mm | - | 0 W/m² | - |
| 1777974923 | 12.78° C | 99% | - | 4.83 mm | - | 0 W/m² | - |
| 1777974328 | 12.78° C | 99% | - | 5.08 mm | - | 0 W/m² | - |
| 1777973734 | 12.78° C | 99% | 1007.3 hPa | 4.57 mm | - | 0 W/m² | - |
| 1777973140 | 12.78° C | 99% | 1007.7 hPa | 4.06 mm | - | 0 W/m² | - |
| 1777972519 | 13.33° C | 99% | - | 3.05 mm | - | 0 W/m² | - |
| 1777971926 | 13.33° C | 99% | 1007 hPa | 2.03 mm | - | 0 W/m² | - |
* Rain latest hour (hover to see other rain measurements)
** Current wind speed in m/s (hover to see current wind gust speed)